www.pogodaiklimat.ru

Погода и климат >> Архив погоды >> Россия >> город Санкт-Петербург >> Санкт-Петербург


АРХИВ ПОГОДЫ в Санкт-Петербурге

Время (UTC), дата Ветер
(напр.,м/с)
 
Видим.   Явления Облачность Т
(С)
Тd
(С)
f
(%)
Тe
(С)
Тes
(С)
Комфортность P
(гПа)
Po
(гПа)
Тmin
(С)
Tmax
(С)
R
(мм)
R24
(мм)
S
(см)
15 16.10 З 2 10 км ясно +12.1 +8.9 81 +11 +11 тепло 1019.5 1018.8
18 16.10 З 1 10 км 10/10 300 м
[Sc]
+11.5 +9.7 89 +11 +11 тепло 1020.6 1019.9 +16.1
21 16.10 штиль 0 4000 м дымка 10/10 210 м
[St]
+11.3 +9.7 90 +11 +11 тепло 1021.3 1020.6
00 17.10 штиль 0 2000 м дымка 10/10 150 м
[St]
+11.2 +10.1 93 +10 +10 тепло 1021.7 1021.0
03 17.10 В 1 2000 м дымка 10/10 120 м
[St]
+11.1 +10.2 94 +11 +11 тепло 1022.1 1021.4 +11.0
06 17.10 штиль 0 4000 м дымка 4/0
[Cc]
+10.8 +8.9 88 +10 +10 тепло 1022.5 1021.8 +10.8
09 17.10 Ю 2 10 км 6/0
[Cc]
+12.8 +8.1 73 +12 +14 тепло 1022.4 1021.7
12 17.10 Ю 2 10 км 10/0
[Ac und]
+14.2 +8.8 70 +14 +14 тепло 1021.4 1020.7
15 17.10 ЮВ 1 10 км 6/0
[Ac trans]
+13.5 +9.0 74 +14 +14 тепло 1020.8 1020.1 0.0
18 17.10 ЮЗ 2 10 км ясно +13.6 +8.5 71 +13 +13 тепло 1019.7 1019.0 +14.4 0.0
21 17.10 ЮЗ 1 10 км ясно +11.8 +7.6 75 +12 +12 тепло 1019.3 1018.6
00 18.10 Ю 2 10 км ясно +11.0 +7.2 77 +10 +10 тепло 1018.1 1017.4
03 18.10 Ю 1 10 км ясно +9.8 +6.9 82 +9 +9 тепло 1017.3 1016.6 +9.6
06 18.10 ЮЗ 1 10 км ясно +10.0 +7.4 84 1016.8 1016.1 +9.4
09 18.10 ЮЗ 2 10 км ясно +13.9 +9.1 73 +13 +15 тепло 1015.9 1015.2
12 18.10 ЮЗ 2 10 км 9/0
[Ac trans]
+16.2 +7.5 56 +16 +17 тепло 1013.8 1013.1
15 18.10 ЮЗ 3 10 км 9/0
[Ac trans]
+14.6 +8.2 65 +14 +14 тепло 1012.9 1012.2
18 18.10 ЮЗ 2 10 км в посл. час ливневой дождь 10/10 1500 м
[Sc]
+11.4 +9.6 89 +10 +10 тепло 1012.4 1011.7 +17.0 0.0
21 18.10 З 2 10 км {ливн. осадки} 10/10 200 м
[Sc]
+11.1 +9.8 92 +10 +10 тепло 1013.1 1012.3
00 19.10 СЗ 2 10 км {ливн. осадки} 10/10 300 м
[Sc]
+10.1 +8.3 89 +9 +9 тепло 1014.4 1013.7
03 19.10 З 2 10 км ясно +6.8 +4.9 88 +5 +5 по сезону 1015.4 1014.6 +6.7 0.0
06 19.10 СЗ 2 10 км ясно +7.6 +4.7 82 +6 +6 по сезону 1016.2 1015.5 +6.7 0.0
09 19.10 З 3 10 км ясно +10.3 +4.1 65 +8 +10 тепло 1016.9 1016.2
12 19.10 З 4 10 км 3/3 600 м
[Cu hum]
+10.4 +4.1 65 +8 +9 тепло 1017.0 1016.3
15 19.10 З 3 10 км 4/4 600 м
[Cu hum]
+9.1 +4.3 72 +7 +7 по сезону 1017.3 1016.6
18 19.10 СЗ 2 10 км 3/3 600 м
[Cu hum]
+8.5 +3.5 71 +7 +7 тепло 1017.9 1017.2 +11.0
21 19.10 СЗ 2 10 км 1/1 600 м
[Cu hum]
+7.7 +3.4 74 +6 +6 по сезону 1018.6 1017.8
00 20.10 СЗ 1 10 км ясно +6.1 +3.4 83 +5 +5 по сезону 1018.8 1018.0
03 20.10 СЗ 1 10 км ясно +4.9 +2.8 86 +4 +4 по сезону 1019.1 1018.3 +4.8
06 20.10 СЗ 1 10 км 9/0
[Ac trans Cc]
+5.1 +3.9 92 +4 +4 по сезону 1019.9 1019.1 +3.8
09 20.10 штиль 0 10 км 10/0
[Ac und]
+7.3 +3.5 77 +7 +7 тепло 1021.0 1020.2
12 20.10 З 1 10 км 9/0
[Ac As]
+8.7 +4.9 77 +8 +9 тепло 1021.4 1020.6
15 20.10 З 1 10 км 10/3 900 м
[Sc As trans]
+7.8 +5.2 84 +7 +7 тепло 1021.8 1021.0
18 20.10 штиль 0 10 км 8/3
[Sc Ac As]
+6.6 +5.1 90 +6 +6 по сезону 1022.1 1021.3 +9.2
21 20.10 ЮЗ 1 10 км 6/6 1000 м
[Sc]
+8.0 +4.8 80 +7 +7 тепло 1022.4 1021.6
00 21.10 ЮЗ 1 10 км 10/0
[As trans]
+7.5 +5.0 84 +7 +7 тепло 1022.6 1021.8
03 21.10 ЮЗ 1 10 км 5/5 600 м
[Sc]
+7.2 +5.2 87 +6 +6 тепло 1022.9 1022.1 +6.5
06 21.10 ЮЗ 1 10 км 4/4 1000 м
[Sc]
+6.6 +5.0 90 +5 +5 по сезону 1023.3 1022.4 +6.0
09 21.10 ЮЗ 2 10 км 4/3 1000 м
[Sc Ci fib]
+10.3 +5.1 70 +9 +10 тепло 1023.7 1023.0
12 21.10 ЮЗ 2 10 км 9/9 1300 м
[Sc]
+10.6 +4.8 67 +9 +10 тепло 1022.6 1021.9
15 21.10 Ю 3 10 км 4/0
[Cs]
+7.9 +4.1 77 +5 +5 по сезону 1021.9 1021.1
18 21.10 Ю 3 10 км 8/3 600 м
[Sc Ac trans Cs]
+7.0 +4.2 82 +4 +4 по сезону 1020.1 1019.3 +12.0
21 21.10 ЮЗ 5 10 км 9/0
[Ac trans]
+7.5 +3.5 76 +4 +4 по сезону 1017.0 1016.2
00 22.10 ЮЗ 5
{11}
10 км 10/10 1500 м
[Sc]
+7.9 +4.3 78 +4 +4 по сезону 1013.8 1013.0
03 22.10 ЮЗ 4-10
{11}
10 км {дождь} 10/10 500 м
[Sc]
+8.3 +4.9 79 +5 +5 по сезону 1009.3 1008.6 +6.8 0.0
06 22.10 ЮЗ 4
{11}
10 км {дождь} 10/10 500 м
[Sc diur, vesp]
+9.2 +6.1 81 +6 +6 тепло 1006.6 1005.9 +7.0 0.0
09 22.10 ЮЗ 5
{10}
4000 м слабый дождь {морось} 10/10 300 м
[Frnb Ns]
+9.7 +8.3 91 +6 +6 по сезону 1005.4 1004.7
12 22.10 СЗ 2 4000 м в посл. час ливневой дождь 10/10 600 м
[Cb cap]
+10.1 +8.4 89 +9 +9 тепло 1005.4 1004.7
15 22.10 З 1 10 км 10/10 600 м
[Sc diur, vesp]
+8.4 +4.6 77 +8 +8 тепло 1006.3 1005.6 1
18 22.10 ЮЗ 2 10 км 8/8 1000 м
[Sc diur, vesp]
+8.2 +5.2 81 +6 +6 по сезону 1005.5 1004.8 +11.4 1
21 22.10 С 1 10 км в посл. час дождь 8/8 600 м
[Sc diur, vesp]
+4.3 +2.9 91 +3 +3 по сезону 1004.7 1003.9
00 23.10 З 2 10 км {дождь} 4/4 600 м
[Sc diur, vesp]
+5.4 +3.2 86 +3 +3 по сезону 1003.4 1002.7
03 23.10 ЮЗ 3 10 км ясно +5.3 +1.9 79 +2 +2 по сезону 1001.4 1000.6 +3.7 2
06 23.10 ЮЗ 3 10 км 3/0
[Ac trans]
+4.7 +1.2 78 +1 +1 по сезону 999.4 998.7 +3.7 2
09 23.10 Ю 2 10 км 8/5 600 м
[Cu hum Ac trans Ci fib]
+6.3 +2.4 76 +4 +5 по сезону 997.5 996.8
12 23.10 Ю 3 10 км 8/4 600 м
[Sc diur, vesp Ac trans]
+7.4 +2.7 72 +5 +5 по сезону 994.5 993.8

 

Местоположение метеостанции Санкт-Петербург (город Санкт-Петербург, Россия): широта 59.97 долгота 30.30 высота над уровнем моря 6 м.

В архиве по умолчанию представлена погода в Санкт-Петербурге за последнюю неделю. Архивные данные за месяц целиком и за предыдущие месяцы, начиная с января 2011 года, Вы можете получить, выбрав интересующий диапазон дат из раскрывающегося списка и нажав кнопку "Ввод!".


*Определитесь, кто Вы:
робот инопланетянин человек

Внимание! Время в таблицах - всемирное. Для получения местного времени необходимо прибавить поправку, которая в Санкт-Петербурге равна 3 ч.

Смотрите также архив погоды в соседних городах и на ближайших метеорологических станциях:

Погода в Лисьем Носу (город Санкт-Петербург, Россия) (19 км)
Погода в Воейково (город Санкт-Петербург, Россия) (22 км)
Погода в Ломоносове (город Санкт-Петербург, Россия) (29 км)
Погода в Кронштадте (город Санкт-Петербург, Россия) (30 км)
Погода в Шлиссельбурге (Ленинградская область, Россия) (39 км)
Погода в Рощино (Ленинградская область, Россия) (48 км)
Погода в Шепелево (Ленинградская область, Россия) (58 км)
Погода в Сосново (Ленинградская область, Россия) (65 км)
Погода в Сосновом Бору (Ленинградская область, Россия) (65 км)
Погода в Белогорке (Ленинградская область, Россия) (70 км)

Пояснения к столбцам:

Ветер - указаны скорость ветра в м/с - средняя за 10 мин, порывы в срок и между сроками (в фигурных скобках) и направление, откуда дует ветер: С - северный, СВ - северо-восточный, В - восточный, ЮВ - юго-восточный, Ю - южный, ЮЗ - юго-западный, З - западный, СЗ - северо-западный.
Видимость - горизонтальная дальность видимости в метрах или километрах. При видимости от 1 до 10 км при отсутствии осадков обычно наблюдается дымка, при ухудшении видимости до 1 км и менее - туман. В сухую погоду видимость может ухудшаться дымом, пылью или мглою.
Явления - указаны атмосферные явления, наблюдавшиеся в срок или в последний час перед сроком; фигурными скобками обозначены явления, наблюдавшиеся между сроками (за 1-3 часа до срока); квадратными скобками обозначены град или гололедные отложения с указанием их диаметра в мм.
Облачность - указаны через наклонную черту общая и нижняя облачность в баллах и высота нижней границы облаков в метрах; квадратными скобками обозначены формы облаков: Ci - перистые, Cs - перисто-слоистые, Cc - перисто-кучевые, Ac - высококучевые, As - высокослоистые, Sc - слоисто-кучевые, Ns - слоисто-дождевые, Cu - кучевые, Cb - кучево-дождевые. Подробнее классификацию облаков см. в Атласе облаков (PDF).
T - Температура воздуха - температура, измеренная на высоте 2 м над землей.
Td - Температура точки росы - температура, при понижении до которой содержащийся в воздухе водяной пар достигнет насыщения.
f - Относительная влажность воздуха - влажноcть воздуха, измеренная на высоте 2 м над землей.
Te - Эффективная температура - температура, которую ощущает одетый по сезону человек в тени. Характеристика душности погоды. При расчете учитывается влияние влажности воздуха и скорости ветра на теплоощущения человека.
Tes - Эффективная температура на солнце - температура, которую ощущает человек, с поправкой на солнечный нагрев. Характеристика знойности погоды. Зависит от высоты солнца над горизонтом, облачности и скорости ветра. Ночью, в пасмурную погоду, а также при ветре 12 м/с и более поправка равна нулю.
P - Атмосферное давление - приведенное к уровню моря атмосферное давление.
Po - Атмосферное давление - измеренное на уровне метеостанции атмосферное давление.
Tmin - Минимальная температура - минимум температуры воздуха на высоте 2 м над землей.
Tmax - Максимальная температура - максимум температуры воздуха на высоте 2 м над землей.
R - Количество осадков - Количество выпавших осадков за период времени, мм. При наведении курсора мыши на число - период времени, за который выпало указанное количество осадков.
R24 - Количество осадков - Количество выпавших осадков за 24 часа, мм.
S - Снежный покров - Высота снежного покрова, см. При наведении курсора мыши на число - состояние снежного покрова и степень покрытия местности в баллах.